Wind_Speed
17 16 13 11 9 6 5 3 2 3 5 7 9 10 10 10 11 12 13 14 14 16 16 16 15 15 15 14 14 13 12 11 10 10 10 9 8 7 6 6 5 5 5 5
20 17 15 13 11 9 7 5 4 2 2 3 5 7 8 8 9 10 11 12 13 14 15 15 15 15 14 14 14 13 12 12 11 10 10 10 9 8 7 7 6 6 7 7
21 19 18 16 14 11 9 8 6 4 2 0 2 4 6 7 7 8 9 10 11 12 13 14 14 14 14 14 14 13 12 12 11 11 10 10 9 9 9 8 8 8 8 8
24 22 21 19 17 14 12 11 9 6 5 3 3 2 3 5 6 6 7 8 9 10 11 12 13 12 12 12 13 13 12 12 11 11 11 10 10 9 9 9 9 9 8 9
26 24 23 21 19 17 14 14 12 10 8 7 5 4 2 3 4 4 5 6 7 9 10 10 10 11 11 12 12 12 12 12 12 11 11 11 10 10 9 9 10 10 10 9
28 26 25 23 22 20 17 16 15 13 12 10 7 6 3 3 4 3 3 5 5 7 8 9 9 10 10 11 12 12 12 12 12 12 12 11 10 10 10 10 10 11 10 10
29 28 27 25 24 23 21 19 18 16 15 12 10 8 5 3 3 3 2 3 3 5 6 7 8 8 9 9 10 10 11 12 12 12 12 12 11 11 11 11 11 11 11 11
31 29 28 26 25 24 22 20 19 18 16 14 13 10 8 6 5 4 2 1 2 3 5 5 6 6 7 8 9 9 9 11 12 12 12 12 11 12 12 12 12 12 12 12
31 29 28 27 26 25 24 23 20 19 19 18 16 12 11 9 7 5 4 3 3 4 4 3 4 5 5 7 8 8 9 10 12 13 13 13 11 11 11 12 12 12 12 12
32 31 29 28 27 27 26 24 22 21 20 20 18 15 12 10 9 8 7 5 4 4 4 4 4 5 5 6 8 8 8 9 11 13 14 13 12 12 12 12 12 12 12 12
33 33 31 30 30 28 27 26 24 23 22 21 19 16 14 12 11 10 9 7 6 4 5 5 5 5 6 7 8 8 9 10 11 12 13 13 13 13 13 12 13 13 13 13
34 34 33 32 31 30 29 28 26 26 24 22 20 17 15 14 13 12 11 10 8 7 6 6 7 7 8 8 9 9 10 11 12 13 13 13 13 13 13 13 13 14 14 14
35 36 35 35 34 33 32 30 28 27 26 24 23 19 16 15 15 13 12 12 10 9 9 8 8 9 10 10 10 10 11 12 13 14 14 14 14 14 14 14 14 15 15 15
37 37 37 36 35 33 33 31 30 29 28 26 25 22 19 17 16 15 14 14 13 11 11 11 10 11 12 12 12 11 12 13 14 15 15 15 15 15 16 15 15 15 16 16
37 37 37 36 35 34 33 32 31 31 29 28 26 23 21 19 18 17 16 15 15 13 13 12 12 12 13 13 13 13 13 14 15 16 17 16 16 17 17 16 16 16 17 17
38 38 37 38 37 36 35 34 34 33 31 29 27 25 23 22 20 19 18 17 17 16 15 15 14 14 14 15 15 15 15 16 16 17 18 17 17 18 17 18 18 18 18 18
38 38 38 38 38 37 37 36 35 35 33 31 28 25 25 24 22 21 20 19 19 18 18 17 17 17 16 16 16 17 17 17 18 19 19 19 19 19 19 19 19 20 20 20
39 38 37 37 37 39 38 35 35 34 33 32 30 28 27 26 24 23 22 22 21 20 20 20 20 19 17 18 18 18 19 19 19 20 20 20 20 20 20 21 21 21 22 21
40 40 39 39 38 39 38 37 36 36 35 33 31 30 29 28 27 25 24 24 24 23 23 22 21 21 20 20 20 20 21 21 21 21 21 21 21 22 22 22 22 22 22 22
42 41 41 41 40 40 38 37 38 37 37 34 32 31 30 30 29 27 26 26 26 26 25 24 24 24 23 23 23 23 23 23 23 22 22 22 22 22 22 23 23 23 23 23
43 42 42 41 41 40 39 37 37 38 37 35 34 32 32 31 30 29 29 28 28 27 26 26 27 27 26 26 26 26 25 24 23 23 23 23 23 23 24 24 24 24 24 24
44 43 42 41 41 40 39 38 37 37 36 35 35 33 32 32 31 31 31 30 29 28 28 29 29 29 28 27 27 27 27 26 26 25 25 25 25 25 25 25 25 26 25 25
43 42 42 42 41 39 38 38 37 36 36 36 36 36 34 33 32 32 31 30 29 30 30 31 31 30 29 29 29 29 29 29 28 27 26 26 27 27 27 27 27 27 27 27
42 41 42 41 40 39 38 38 38 37 36 35 35 36 36 34 33 32 32 30 30 31 32 33 31 30 30 30 30 30 31 30 30 29 29 29 29 29 29 29 29 29 29 29
41 41 42 42 40 39 38 38 38 37 36 35 35 34 34 34 33 31 31 30 30 29 30 31 32 32 32 32 32 32 32 32 32 32 32 31 31 32 32 32 32 31 31 31
41 41 41 41 41 40 38 38 38 38 38 37 36 35 33 32 32 32 32 31 31 31 31 31 32 33 34 34 33 34 34 34 34 34 33 33 33 33 34 34 34 33 33 32
Wind_Direction
206 201 197 195 188 183 182 172 133 97 76 79 72 68 65 56 51 49 52 54 54 55 56 57 58 59 59 58 57 57 57 57 56 54 51 49 46 44 36 25 21 15 3 351
211 206 203 201 199 202 208 206 201 180 93 75 70 63 58 56 53 48 49 52 52 55 56 57 59 59 59 57 56 54 54 55 56 54 49 46 40 34 27 19 14 8 1 354
216 210 208 206 208 210 213 207 213 227 226 22 41 51 46 54 54 50 49 49 50 51 52 53 55 56 56 55 54 53 53 55 53 50 46 41 35 31 25 21 13 6 359 353
216 211 212 212 212 215 211 211 217 224 235 251 293 330 23 41 44 51 51 49 49 46 46 46 48 50 51 51 50 50 51 51 49 45 41 37 32 27 22 17 11 4 356 351
216 213 213 215 216 217 217 223 227 231 238 246 266 283 338 13 27 44 54 48 48 43 40 40 41 43 46 46 47 46 46 46 42 37 32 29 26 23 19 14 9 6 359 353
217 215 216 216 218 220 223 228 232 235 238 240 252 265 288 331 6 28 52 46 43 40 35 34 36 40 41 41 42 42 42 41 37 33 27 23 19 17 14 10 7 5 2 358
216 217 218 219 219 222 225 229 233 236 237 237 245 256 268 294 325 340 19 44 39 36 30 28 34 38 36 34 34 36 37 36 32 27 22 17 14 11 9 7 6 3 2 359
218 218 218 220 221 224 227 231 234 239 238 240 246 250 255 266 283 303 316 337 2 17 22 21 27 31 27 24 25 28 27 24 21 19 15 11 8 7 5 3 1 359 357 356
219 220 219 220 221 224 226 229 233 240 243 243 242 246 249 259 266 285 297 287 313 344 0 0 10 14 12 9 14 18 16 15 14 10 7 4 2 359 356 354 352 353 353 352
219 219 217 219 221 225 227 230 232 237 241 243 243 244 248 257 267 276 288 288 288 320 331 327 343 346 346 350 357 359 1 4 4 2 1 358 356 352 349 346 344 344 345 345
219 219 217 219 222 224 226 229 233 237 242 245 248 247 249 255 262 271 279 280 282 292 312 316 323 331 334 335 341 343 345 349 349 351 352 352 350 347 345 343 341 340 339 338
219 220 219 219 222 224 226 230 233 236 241 245 248 247 247 250 259 266 268 270 276 281 291 304 310 315 319 324 328 329 332 336 337 339 342 343 342 341 340 337 336 336 335 333
220 221 219 218 221 223 226 229 232 236 240 243 247 251 251 251 253 263 269 269 275 279 285 294 303 307 308 312 315 316 322 326 328 329 331 333 334 333 332 332 330 330 330 329
220 223 222 222 223 225 227 230 233 236 240 243 248 250 251 252 254 260 267 270 276 281 287 291 296 297 299 303 306 307 312 317 321 322 323 325 326 326 326 327 325 325 325 326
222 224 225 224 224 226 229 232 234 238 243 246 249 251 252 254 255 258 264 269 273 277 283 285 291 295 294 296 299 301 304 309 315 319 319 318 319 320 321 322 322 322 321 320
223 225 226 226 225 226 228 230 234 238 242 245 248 249 250 252 255 257 261 266 269 274 280 279 285 292 289 290 294 299 301 304 309 314 315 314 315 316 317 318 318 319 319 318
224 226 228 229 229 230 230 230 233 236 239 243 246 250 250 252 256 257 259 261 266 271 277 280 282 288 285 286 289 294 298 301 304 307 309 311 312 313 314 314 314 313 314 314
226 228 229 231 231 233 234 233 235 236 239 242 245 247 250 252 254 256 257 258 261 267 272 276 280 285 284 284 287 292 296 299 301 302 306 306 307 309 309 309 310 310 311 311
226 229 231 233 234 235 235 236 237 237 239 242 245 247 249 250 253 255 258 260 263 266 270 273 278 281 282 284 286 290 294 297 297 300 302 303 304 305 306 308 307 308 308 308
226 229 232 234 236 237 236 237 239 240 241 243 245 246 247 249 252 255 257 261 263 265 268 269 273 277 279 282 284 287 292 293 293 295 298 299 302 302 303 305 305 306 305 305
228 230 233 235 237 239 238 238 239 240 242 243 244 244 246 248 251 254 256 259 262 264 266 268 272 275 276 279 282 285 288 289 291 293 295 296 299 299 300 301 302 303 303 302
229 231 233 235 237 240 239 240 240 241 242 242 243 244 245 247 250 254 257 258 260 262 266 269 271 272 274 276 279 283 286 287 289 291 292 294 296 297 298 298 299 300 301 301
231 232 234 235 237 240 240 240 241 241 241 242 243 244 245 247 250 253 256 257 260 263 265 266 269 270 270 274 278 281 284 286 288 290 290 292 294 296 296 296 297 298 298 299
231 233 234 235 236 238 239 239 240 241 242 243 243 245 245 247 249 250 254 256 259 262 265 265 268 271 272 275 277 280 282 284 287 288 289 291 292 294 295 295 295 296 296 297
232 233 234 235 236 238 239 240 240 241 242 243 244 245 245 245 247 249 253 256 260 262 264 265 266 268 270 272 275 278 281 283 284 286 287 289 291 292 293 294 294 294 294 294
232 234 235 235 235 237 240 242 242 241 241 241 243 245 245 246 247 250 254 257 261 262 263 265 267 268 270 272 274 278 280 282 283 285 286 287 288 290 291 292 293 293 292 292
Height
5911 5914 5916 5918 5919 5920 5921 5922 5922 5922 5922 5922 5921 5921 5921 5920 5920 5918 5917 5916 5914 5912 5911 5910 5909 5908 5906 5905 5904 5903 5902 5902 5901 5900 5899 5899 5898 5898 5897 5896 5895 5895 5894 5893
5910 5912 5915 5917 5918 5920 5920 5922 5923 5923 5923 5923 5923 5923 5923 5922 5921 5920 5919 5918 5916 5915 5914 5912 5911 5910 5909 5908 5907 5906 5904 5903 5903 5902 5901 5900 5900 5899 5898 5897 5896 5895 5894 5893
5907 5912 5913 5915 5917 5919 5920 5922 5923 5923 5923 5924 5924 5924 5924 5924 5923 5922 5921 5920 5919 5917 5916 5915 5913 5912 5911 5910 5909 5908 5907 5905 5905 5904 5903 5902 5901 5900 5899 5898 5897 5895 5894 5892
5903 5908 5910 5912 5915 5917 5919 5921 5922 5923 5924 5924 5925 5925 5925 5924 5924 5923 5923 5922 5920 5919 5918 5916 5915 5914 5913 5912 5911 5909 5908 5907 5906 5905 5904 5903 5902 5901 5900 5898 5897 5895 5894 5892
5900 5904 5907 5910 5913 5916 5918 5919 5921 5922 5923 5924 5924 5925 5926 5925 5924 5924 5924 5923 5922 5921 5919 5918 5917 5916 5915 5914 5912 5911 5910 5909 5908 5907 5905 5904 5903 5902 5900 5899 5897 5895 5894 5892
5896 5900 5904 5907 5911 5913 5915 5917 5919 5920 5921 5923 5924 5924 5925 5925 5925 5925 5924 5923 5923 5922 5921 5920 5918 5917 5916 5915 5914 5913 5912 5911 5909 5908 5907 5905 5904 5902 5901 5899 5897 5895 5894 5892
5891 5896 5900 5904 5906 5909 5912 5915 5916 5917 5918 5921 5922 5923 5925 5925 5925 5924 5924 5924 5923 5922 5921 5920 5919 5918 5917 5917 5915 5914 5913 5912 5910 5909 5908 5906 5904 5903 5901 5899 5898 5896 5894 5892
5887 5892 5896 5900 5903 5906 5909 5912 5914 5916 5917 5918 5920 5921 5924 5924 5924 5924 5923 5923 5923 5922 5922 5921 5920 5919 5918 5917 5916 5915 5914 5913 5911 5910 5908 5906 5904 5903 5901 5899 5898 5896 5894 5892
5883 5888 5892 5896 5899 5903 5905 5908 5911 5913 5914 5916 5917 5920 5922 5923 5923 5923 5923 5923 5923 5923 5922 5921 5920 5919 5918 5918 5916 5915 5914 5913 5911 5910 5908 5906 5904 5903 5901 5899 5898 5896 5894 5892
5878 5883 5888 5892 5895 5898 5902 5905 5907 5909 5911 5912 5915 5917 5920 5921 5922 5923 5923 5923 5922 5922 5921 5920 5920 5919 5918 5917 5916 5915 5914 5913 5911 5909 5908 5906 5904 5902 5900 5899 5897 5895 5894 5892
5873 5878 5883 5887 5890 5893 5897 5900 5903 5906 5908 5910 5912 5917 5918 5919 5920 5921 5921 5922 5921 5921 5920 5920 5919 5918 5918 5917 5916 5915 5913 5912 5911 5909 5907 5905 5903 5901 5900 5898 5896 5894 5892 5890
5867 5872 5877 5882 5886 5889 5892 5896 5899 5902 5905 5907 5909 5914 5915 5916 5918 5918 5919 5919 5919 5919 5919 5918 5917 5917 5916 5915 5915 5914 5912 5911 5910 5908 5906 5904 5902 5900 5899 5897 5895 5893 5891 5889
5861 5865 5870 5875 5881 5884 5887 5891 5894 5898 5901 5903 5905 5911 5911 5913 5914 5916 5916 5917 5917 5917 5916 5916 5916 5915 5914 5914 5913 5912 5911 5909 5908 5906 5905 5903 5901 5899 5897 5895 5893 5891 5889 5887
5855 5859 5865 5870 5874 5879 5882 5886 5890 5893 5895 5898 5901 5905 5908 5909 5911 5912 5913 5914 5914 5914 5914 5913 5913 5913 5912 5912 5911 5910 5909 5907 5906 5904 5902 5901 5899 5897 5895 5893 5891 5889 5887 5885
5848 5853 5858 5864 5869 5873 5877 5881 5884 5888 5891 5894 5897 5900 5903 5905 5907 5909 5910 5911 5911 5911 5911 5910 5910 5910 5910 5909 5908 5907 5906 5905 5903 5902 5900 5898 5896 5895 5893 5890 5889 5887 5885 5882
5841 5847 5852 5857 5862 5866 5870 5874 5878 5882 5886 5889 5892 5895 5899 5900 5902 5904 5906 5907 5907 5907 5908 5907 5907 5907 5906 5905 5905 5904 5903 5902 5900 5899 5897 5895 5893 5891 5890 5888 5886 5884 5881 5879
5834 5840 5845 5850 5855 5859 5862 5868 5872 5876 5880 5883 5886 5891 5893 5895 5897 5899 5901 5902 5903 5903 5903 5903 5903 5903 5902 5902 5901 5900 5899 5898 5897 5895 5893 5891 5890 5888 5886 5884 5882 5880 5878 5876
5828 5833 5838 5843 5849 5851 5859 5862 5866 5870 5873 5877 5881 5884 5887 5890 5892 5894 5896 5897 5898 5898 5899 5899 5899 5898 5898 5897 5897 5896 5895 5894 5892 5891 5889 5887 5886 5884 5882 5880 5878 5876 5874 5872
5821 5826 5831 5836 5840 5844 5850 5855 5859 5863 5867 5871 5875 5878 5881 5883 5886 5888 5890 5891 5892 5893 5893 5894 5894 5893 5893 5892 5892 5891 5890 5889 5888 5886 5885 5883 5881 5879 5877 5876 5874 5872 5869 5867
5813 5819 5824 5828 5832 5837 5844 5849 5852 5857 5859 5864 5868 5871 5874 5877 5880 5883 5884 5885 5886 5887 5887 5888 5888 5888 5887 5887 5886 5886 5885 5883 5882 5881 5880 5878 5876 5874 5872 5870 5868 5866 5864 5862
5805 5810 5815 5820 5824 5829 5836 5840 5844 5849 5853 5857 5860 5863 5867 5870 5873 5876 5877 5878 5879 5880 5881 5881 5881 5881 5881 5880 5880 5879 5879 5877 5876 5875 5873 5872 5870 5868 5867 5865 5863 5861 5858 5856
5797 5802 5807 5812 5817 5824 5827 5831 5836 5840 5845 5848 5852 5855 5859 5862 5865 5867 5869 5870 5872 5873 5873 5874 5874 5874 5874 5873 5873 5872 5871 5870 5869 5868 5867 5865 5864 5862 5860 5859 5857 5854 5852 5850
5789 5795 5800 5805 5811 5815 5819 5823 5827 5832 5836 5840 5844 5847 5851 5854 5857 5859 5861 5862 5864 5865 5866 5866 5866 5866 5866 5866 5866 5865 5864 5862 5861 5860 5859 5858 5857 5855 5853 5852 5850 5848 5846 5843
5781 5786 5791 5796 5802 5806 5810 5814 5819 5823 5827 5832 5835 5839 5842 5846 5849 5851 5853 5854 5855 5856 5857 5858 5858 5858 5858 5858 5858 5857 5855 5854 5853 5852 5851 5850 5849 5847 5846 5844 5842 5840 5838 5836
5772 5777 5782 5788 5793 5797 5802 5806 5811 5815 5819 5823 5827 5830 5833 5837 5840 5843 5844 5846 5846 5847 5849 5849 5850 5850 5850 5850 5849 5848 5847 5846 5845 5844 5843 5842 5840 5839 5837 5836 5834 5832 5831 5828
5765 5770 5774 5780 5785 5789 5794 5798 5802 5806 5810 5814 5818 5821 5824 5827 5831 5834 5836 5837 5838 5839 5840 5840 5840 5841 5841 5840 5840 5839 5838 5837 5837 5835 5834 5833 5831 5830 5828 5827 5825 5823 5822 5820